Weather History for LIPZ - December, 2013

Change the Weather History Date:

Tuesday, December 17, 2013

  Actual Average Record
Temperature  
Mean Temperature 41 °F -  
Max Temperature 51 °F 43 °F 57 °F (2014)
Min Temperature 31 °F 31 °F 21 °F (2001)
Degree Days  
Heating Degree Days 24    
Moisture  
Dew Point 33 °F    
Average Humidity 82    
Maximum Humidity 93    
Minimum Humidity 44    
Precipitation  
Precipitation 0.00 in 0.07 in - ()
Sea Level Pressure  
Sea Level Pressure 30.48 in    
Wind  
Wind Speed 1 mph ()    
Max Wind Speed 5 mph    
Max Gust Speed -    
Visibility 3.2 miles    
Events Fog    
Averages and records for this station are not official NWS values.
T = Trace of Precipitation, MM = Missing Value Source: Averaged Metar Reports

Daily Weather History Graph

Daily Weather History Graph

Search for Another Location

Airport or City:

Trip Planner

Search our weather history database for the weather conditions in past years. The results will help you decide how hot, cold, wet, or windy it might be!

Date:

Astronomy

Dec. 17, 2013 Rise Set
Actual Time 7:45 AM CET 4:28 PM CET
Civil Twilight 7:11 AM CET 5:02 PM CET
Nautical Twilight 6:33 AM CET 5:40 PM CET
Astronomical Twilight 5:57 AM CET 6:16 PM CET
Moon 4:56 PM CET (12/17) 7:25 AM CET (12/17)
Length of Visible Light 9h 51m
Length of Day
8h 42m
Full, 100% of the Moon is Illuminated
Dec 17
Full
Dec 25
Last Quarter
Jan 1
New
Jan 8
First Quarter
Jan 16
Full

Hourly Weather History & Observations

Time (CET) Temp. Windchill Dew Point Humidity Pressure Visibility Wind Dir Wind Speed Gust Speed Precip Events Conditions
12:20 AM 33.8 °F - 32.0 °F 93% 30.57 in 1.9 mi Variable 2.3 mph - N/A   Mist
12:50 AM 33.8 °F - 32.0 °F 93% 30.54 in 3.1 mi Variable 2.3 mph - N/A   Mist
1:00 AM 34 °F - 31 °F 85% 30.56 in 3 mi West 2.3 mph - -   Mist
1:20 AM 33.8 °F - 32.0 °F 93% 30.54 in 3.1 mi Variable 1.2 mph - N/A   Mist
1:50 AM 32.0 °F - 30.2 °F 93% 30.54 in 2.5 mi Calm Calm - N/A   Mist
2:20 AM 33.8 °F - 32.0 °F 93% 30.54 in 2.5 mi Variable 1.2 mph - N/A   Mist
2:50 AM 32.0 °F - 30.2 °F 93% 30.54 in 3.1 mi Variable 1.2 mph - N/A   Mist
3:20 AM 32.0 °F - 30.2 °F 93% 30.54 in 3.1 mi Variable 1.2 mph - N/A   Mist
3:50 AM 32.0 °F - 30.2 °F 93% 30.54 in 3.1 mi Variable 2.3 mph - N/A   Mist
4:00 AM 33 °F - 30 °F 82% 30.55 in 3 mi West 2.3 mph - -   Mist
4:20 AM 32.0 °F - 30.2 °F 93% 30.54 in 3.1 mi Variable 1.2 mph - N/A   Mist
4:50 AM 30.2 °F - 28.4 °F 93% 30.51 in 3.1 mi Variable 2.3 mph - N/A   Mist
5:20 AM 32.0 °F - 30.2 °F 93% 30.51 in 3.1 mi Variable 1.2 mph - N/A   Mist
5:50 AM 32.0 °F - 30.2 °F 93% 30.51 in 3.1 mi Calm Calm - N/A   Mist
6:20 AM 30.2 °F - 28.4 °F 93% 30.51 in 3.1 mi Calm Calm - N/A   Mist
6:50 AM 33.8 °F - 32.0 °F 93% 30.51 in 3.1 mi Calm Calm - N/A   Mist
7:00 AM 34 °F - 32 °F 88% 30.52 in 3 mi Calm Calm - -   Mist
7:20 AM 33.8 °F - 30.2 °F 87% 30.51 in 4.3 mi Calm Calm - N/A Fog Fog
7:50 AM 32.0 °F - 30.2 °F 93% 30.51 in 4.3 mi Variable 2.3 mph - N/A   Unknown
8:20 AM 33.8 °F 30.8 °F 30.2 °F 87% 30.51 in 4.3 mi Variable 3.5 mph - N/A   Unknown
8:50 AM 35.6 °F - 32.0 °F 87% 30.51 in 4.3 mi Variable 1.2 mph - N/A   Unknown
9:20 AM 35.6 °F - 33.8 °F 93% 30.51 in 2.5 mi Calm Calm - N/A   Mist
9:50 AM 37.4 °F - 33.8 °F 87% 30.54 in 2.5 mi Calm Calm - N/A   Mist
10:00 AM 37 °F - 34 °F 86% 30.53 in 2 mi WNW 1.2 mph - -   Mist
10:20 AM 39.2 °F - 35.6 °F 87% 30.51 in 2.5 mi Calm Calm - N/A   Mist
10:50 AM 42.8 °F - 35.6 °F 76% 30.51 in 2.5 mi Variable 1.2 mph - N/A   Mist
11:20 AM 44.6 °F 43.1 °F 35.6 °F 71% 30.51 in 2.5 mi Variable 3.5 mph - N/A   Mist
11:50 AM 48.2 °F - 37.4 °F 66% 30.48 in 3.1 mi Variable 1.2 mph - N/A   Mist
12:20 PM 48.2 °F - 35.6 °F 62% 30.48 in 3.7 mi Calm Calm - N/A   Unknown
12:50 PM 48.2 °F - 33.8 °F 58% 30.48 in 3.7 mi Calm Calm - N/A   Unknown
1:00 PM 48 °F - 33 °F 44% 30.49 in 3 mi Calm Calm - -   Mist
1:20 PM 48.2 °F - 33.8 °F 58% 30.48 in 3.7 mi Variable 1.2 mph - N/A   Unknown
1:50 PM 50.0 °F - 33.8 °F 54% 30.45 in 3.7 mi Variable 1.2 mph - N/A   Unknown
2:20 PM 50.0 °F - 37.4 °F 62% 30.45 in 3.7 mi Variable 1.2 mph - N/A   Unknown
2:50 PM 50.0 °F - 35.6 °F 58% 30.42 in 3.1 mi Calm Calm - N/A   Mist
3:20 PM 48.2 °F - 35.6 °F 62% 30.45 in 3.1 mi Variable 1.2 mph - N/A   Mist
3:50 PM 48.2 °F - 35.6 °F 62% 30.42 in 3.1 mi Calm Calm - N/A   Mist
4:00 PM 48 °F - 36 °F 52% 30.43 in 6 mi Calm Calm - -   Mist
4:20 PM 44.6 °F - 35.6 °F 71% 30.42 in 3.1 mi Variable 2.3 mph - N/A   Mist
4:50 PM 42.8 °F 40.1 °F 35.6 °F 76% 30.42 in 3.1 mi SSW 4.6 mph - N/A   Mist
5:20 PM 41.0 °F 38.0 °F 35.6 °F 81% 30.42 in 3.1 mi SW 4.6 mph - N/A   Mist
5:50 PM 39.2 °F 35.9 °F 35.6 °F 87% 30.42 in 3.1 mi SSW 4.6 mph - N/A   Mist
6:20 PM 41.0 °F 39.0 °F 37.4 °F 87% 30.42 in 3.1 mi Variable 3.5 mph - N/A   Mist
6:50 PM 39.2 °F 37.0 °F 37.4 °F 93% 30.42 in 3.1 mi Variable 3.5 mph - N/A   Mist
7:00 PM 40 °F - 36 °F 82% 30.45 in 6 mi SSW 3.5 mph - -   Mist
7:20 PM 39.2 °F 37.0 °F 37.4 °F 93% 30.42 in 3.1 mi Variable 3.5 mph - N/A   Mist
7:50 PM 39.2 °F - 35.6 °F 87% 30.42 in 3.1 mi Variable 2.3 mph - N/A   Mist
8:20 PM 37.4 °F - 33.8 °F 87% 30.42 in 3.1 mi Variable 2.3 mph - N/A   Mist
8:50 PM 37.4 °F - 33.8 °F 87% 30.42 in 3.1 mi Variable 1.2 mph - N/A   Mist
9:20 PM 35.6 °F 31.7 °F 33.8 °F 93% 30.42 in 2.5 mi WNW 4.6 mph - N/A Fog Mist
9:50 PM 37.4 °F - 33.8 °F 87% 30.39 in 3.1 mi Variable 1.2 mph - N/A Fog Mist
10:00 PM 37 °F - 34 °F 83% 30.43 in 6 mi WNW 1.2 mph - -   Mist
10:50 PM 35.6 °F 32.8 °F 33.8 °F 93% 30.42 in 2.2 mi Variable 3.5 mph - N/A Fog Mist
11:20 PM 35.6 °F - 32.0 °F 87% 30.42 in 1.1 mi Calm Calm - N/A Fog Patches of Fog
11:50 PM 33.8 °F - 32.0 °F 93% 30.39 in 1.0 mi Variable 1.2 mph - N/A Fog Patches of Fog